ANE1144 LPPT-LEMD

Flight info

Callsign ANE1144
Flight time 0h 49m
Altitude 32000
Route ORVED DCT OGERO DCT ROLDO DCT RUKER Z409 TLD
Aircraft CRJX/M-SDFGIRWY/S

Departure

Time 2026-05-07 19:33
Airport Lisbon Humberto Delgado Airport (LPPT)

Arrival

Time 2026-05-07 20:23
Airport Adolfo Suárez Madrid–Barajas Airport (LEMD)
Time Latitude Longitude Altitude Speed Heading
2026-05-07 19:07 38.78057 -9.12876 354 ft 0 kts 304°
2026-05-07 19:13 38.78052 -9.12866 353 ft 4 kts 300°
2026-05-07 19:13 38.78042 -9.12835 349 ft 4 kts 278°
2026-05-07 19:14 38.78046 -9.12805 349 ft 4 kts 235°
2026-05-07 19:14 38.78054 -9.12795 353 ft 0 kts 214°
2026-05-07 19:16 38.78051 -9.12798 352 ft 4 kts 214°
2026-05-07 19:16 38.77997 -9.12843 352 ft 14 kts 211°
2026-05-07 19:16 38.77882 -9.12937 356 ft 24 kts 213°
2026-05-07 19:16 38.77773 -9.13076 356 ft 20 kts 256°
2026-05-07 19:17 38.77744 -9.13250 349 ft 19 kts 259°
2026-05-07 19:17 38.77742 -9.13266 349 ft 0 kts 259°
2026-05-07 19:18 38.77742 -9.13267 349 ft 0 kts 258°
2026-05-07 19:18 38.77742 -9.13268 349 ft 0 kts 258°
2026-05-07 19:19 38.77741 -9.13271 349 ft 1 kts 258°
2026-05-07 19:19 38.77734 -9.13309 356 ft 6 kts 256°
2026-05-07 19:19 38.77699 -9.13364 357 ft 9 kts 206°
2026-05-07 19:19 38.77614 -9.13413 350 ft 21 kts 200°
2026-05-07 19:20 38.77450 -9.13414 350 ft 25 kts 164°
2026-05-07 19:20 38.77384 -9.13393 353 ft 0 kts 166°
2026-05-07 19:20 38.77379 -9.13391 351 ft 1 kts 166°
2026-05-07 19:20 38.77374 -9.13389 351 ft 0 kts 168°
2026-05-07 19:21 38.77372 -9.13389 351 ft 0 kts 173°
2026-05-07 19:21 38.77345 -9.13394 352 ft 7 kts 199°
2026-05-07 19:21 38.77308 -9.13446 353 ft 9 kts 251°
2026-05-07 19:21 38.77278 -9.13618 349 ft 24 kts 258°
2026-05-07 19:22 38.77244 -9.13808 353 ft 17 kts 249°
2026-05-07 19:22 38.77157 -9.13886 350 ft 15 kts 202°
2026-05-07 19:22 38.77059 -9.13936 358 ft 15 kts 203°
2026-05-07 19:22 38.76962 -9.13990 352 ft 15 kts 203°
2026-05-07 19:23 38.76865 -9.14042 357 ft 15 kts 201°
2026-05-07 19:23 38.76769 -9.14094 356 ft 10 kts 202°
2026-05-07 19:23 38.76752 -9.14103 351 ft 2 kts 202°
2026-05-07 19:23 38.76715 -9.14123 355 ft 5 kts 202°
2026-05-07 19:24 38.76709 -9.14126 352 ft 0 kts 202°
2026-05-07 19:24 38.76706 -9.14127 352 ft 1 kts 202°
2026-05-07 19:24 38.76705 -9.14128 351 ft 0 kts 202°
2026-05-07 19:26 38.76696 -9.14132 354 ft 5 kts 202°
2026-05-07 19:26 38.76663 -9.14150 351 ft 5 kts 202°
2026-05-07 19:26 38.76627 -9.14170 356 ft 6 kts 202°
2026-05-07 19:26 38.76604 -9.14187 354 ft 0 kts 226°
2026-05-07 19:30 38.76594 -9.14222 352 ft 7 kts 270°
2026-05-07 19:30 38.76605 -9.14271 351 ft 0 kts 290°
2026-05-07 19:31 38.76606 -9.14274 356 ft 4 kts 291°
2026-05-07 19:31 38.76632 -9.14342 357 ft 9 kts 311°
2026-05-07 19:32 38.76683 -9.14364 351 ft 7 kts
2026-05-07 19:32 38.76698 -9.14358 357 ft 0 kts 18°
2026-05-07 19:32 38.76855 -9.14276 355 ft 60 kts 22°
2026-05-07 19:33 38.77462 -9.13952 358 ft 126 kts 22°
2026-05-07 19:33 38.78423 -9.13432 479 ft 164 kts 19°
2026-05-07 19:33 38.79521 -9.12809 1001 ft 181 kts 22°
2026-05-07 19:33 38.80576 -9.11763 1569 ft 201 kts 36°
2026-05-07 19:34 38.81844 -9.10922 2110 ft 212 kts 21°
2026-05-07 19:34 38.83231 -9.10033 2648 ft 237 kts 25°
2026-05-07 19:34 38.84756 -9.08945 3190 ft 263 kts 27°
2026-05-07 19:34 38.86425 -9.07742 3705 ft 287 kts 27°
2026-05-07 19:35 38.88236 -9.06435 4253 ft 307 kts 27°
2026-05-07 19:35 38.89859 -9.04727 4944 ft 298 kts 54°
2026-05-07 19:35 38.90869 -9.02489 6184 ft 284 kts 64°
2026-05-07 19:35 38.91749 -9.00204 7009 ft 287 kts 67°
2026-05-07 19:36 38.92597 -8.97865 7767 ft 290 kts 69°
2026-05-07 19:36 38.93406 -8.95480 8554 ft 292 kts 69°
2026-05-07 19:36 38.94234 -8.93083 9331 ft 295 kts 69°
2026-05-07 19:36 38.95081 -8.90663 10082 ft 298 kts 69°
2026-05-07 19:37 38.95941 -8.88228 10760 ft 301 kts 69°
2026-05-07 19:37 38.96798 -8.85787 11424 ft 305 kts 69°
2026-05-07 19:37 38.97678 -8.83287 12105 ft 308 kts 69°
2026-05-07 19:37 38.98564 -8.80763 12804 ft 311 kts 70°
2026-05-07 19:38 38.99455 -8.78212 13524 ft 313 kts 69°
2026-05-07 19:38 39.00357 -8.75649 14148 ft 317 kts 70°
2026-05-07 19:38 39.01292 -8.72970 14306 ft 338 kts 69°
2026-05-07 19:38 39.02278 -8.70143 14532 ft 354 kts 69°
2026-05-07 19:39 39.03304 -8.67213 14971 ft 361 kts 68°
2026-05-07 19:39 39.04342 -8.64264 15616 ft 363 kts 69°
2026-05-07 19:39 39.05385 -8.61284 16196 ft 367 kts 69°
2026-05-07 19:39 39.06432 -8.58277 16762 ft 370 kts 69°
2026-05-07 19:40 39.07492 -8.55242 17329 ft 374 kts 69°
2026-05-07 19:40 39.08527 -8.52264 17852 ft 377 kts 69°
2026-05-07 19:40 39.09604 -8.49166 18366 ft 380 kts 69°
2026-05-07 19:40 39.10688 -8.46049 18793 ft 384 kts 69°
2026-05-07 19:41 39.11783 -8.42893 19198 ft 388 kts 69°
2026-05-07 19:41 39.12890 -8.39703 19611 ft 392 kts 69°
2026-05-07 19:41 39.13990 -8.36517 20013 ft 396 kts 69°
2026-05-07 19:41 39.15115 -8.33266 20397 ft 399 kts 68°
2026-05-07 19:42 39.16251 -8.29969 20773 ft 403 kts 68°
2026-05-07 19:42 39.17399 -8.26657 21162 ft 407 kts 68°
2026-05-07 19:42 39.18464 -8.23558 21501 ft 411 kts 68°
2026-05-07 19:42 39.19630 -8.20179 21881 ft 414 kts 68°
2026-05-07 19:43 39.20805 -8.16766 22246 ft 418 kts 68°
2026-05-07 19:43 39.21987 -8.13319 22599 ft 422 kts 68°
2026-05-07 19:43 39.23181 -8.09844 22967 ft 425 kts 68°
2026-05-07 19:43 39.24382 -8.06338 23321 ft 429 kts 68°
2026-05-07 19:44 39.25588 -8.02808 23632 ft 432 kts 68°
2026-05-07 19:44 39.26808 -7.99250 23940 ft 434 kts 68°
2026-05-07 19:44 39.28027 -7.95671 24247 ft 436 kts 68°
2026-05-07 19:44 39.29239 -7.92122 24547 ft 438 kts 68°
2026-05-07 19:45 39.30394 -7.88727 24822 ft 440 kts 68°
2026-05-07 19:45 39.31630 -7.85093 25126 ft 442 kts 68°
2026-05-07 19:45 39.32870 -7.81450 25376 ft 445 kts 68°
2026-05-07 19:45 39.34111 -7.77784 25654 ft 447 kts 68°
2026-05-07 19:46 39.35302 -7.74273 25913 ft 449 kts 68°
2026-05-07 19:46 39.36559 -7.70576 26192 ft 450 kts 68°
2026-05-07 19:46 39.37818 -7.66849 26443 ft 452 kts 68°
2026-05-07 19:46 39.39075 -7.63108 26695 ft 454 kts 68°
2026-05-07 19:47 39.40327 -7.59349 26930 ft 456 kts 68°
2026-05-07 19:47 39.41518 -7.55762 27122 ft 459 kts 67°
2026-05-07 19:47 39.42762 -7.52079 27351 ft 461 kts 66°
2026-05-07 19:47 39.44053 -7.48276 27588 ft 462 kts 66°
2026-05-07 19:48 39.45347 -7.44457 27819 ft 464 kts 66°
2026-05-07 19:48 39.46650 -7.40623 28042 ft 465 kts 66°
2026-05-07 19:48 39.47952 -7.36778 28257 ft 467 kts 66°
2026-05-07 19:48 39.49256 -7.32919 28465 ft 468 kts 66°
2026-05-07 19:49 39.50566 -7.29044 28678 ft 470 kts 66°
2026-05-07 19:49 39.51875 -7.25163 28873 ft 471 kts 66°
2026-05-07 19:49 39.52746 -7.22576 29002 ft 472 kts 66°
2026-05-07 19:49 39.53979 -7.18903 29187 ft 473 kts 66°
2026-05-07 19:50 39.55300 -7.14995 29368 ft 475 kts 66°
2026-05-07 19:50 39.57051 -7.09775 29582 ft 477 kts 66°
2026-05-07 19:50 39.58371 -7.05826 29758 ft 478 kts 66°
2026-05-07 19:50 39.59250 -7.03204 29875 ft 479 kts 66°
2026-05-07 19:51 39.60574 -6.99239 30073 ft 479 kts 66°
2026-05-07 19:51 39.61841 -6.95437 30198 ft 480 kts 66°
2026-05-07 19:51 39.63170 -6.91446 30323 ft 482 kts 66°
2026-05-07 19:51 39.64506 -6.87446 30446 ft 483 kts 66°
2026-05-07 19:52 39.67066 -6.79734 30628 ft 487 kts 65°
2026-05-07 19:52 39.68409 -6.75687 30746 ft 488 kts 66°
2026-05-07 19:52 39.69750 -6.71630 30858 ft 489 kts 66°
2026-05-07 19:53 39.71096 -6.67560 30967 ft 491 kts 66°
2026-05-07 19:53 39.72427 -6.63531 31074 ft 492 kts 66°
2026-05-07 19:53 39.73773 -6.59436 31183 ft 493 kts 66°
2026-05-07 19:53 39.75127 -6.55326 31282 ft 494 kts 66°
2026-05-07 19:54 39.77725 -6.47408 31472 ft 496 kts 66°
2026-05-07 19:54 39.80049 -6.38904 31550 ft 502 kts 77°
2026-05-07 19:55 39.80764 -6.34467 31713 ft 501 kts 80°
2026-05-07 19:55 39.81229 -6.29973 31787 ft 502 kts 85°
2026-05-07 19:55 39.81853 -6.20884 31859 ft 507 kts 85°
2026-05-07 19:56 39.82631 -6.11988 31868 ft 512 kts 84°
2026-05-07 19:56 39.83436 -6.02785 31882 ft 518 kts 83°
2026-05-07 19:57 39.84246 -5.93420 31887 ft 523 kts 84°
2026-05-07 19:57 39.85058 -5.83982 31882 ft 527 kts 84°
2026-05-07 19:58 39.85841 -5.74797 31887 ft 530 kts 84°
2026-05-07 19:58 39.86626 -5.65359 31854 ft 507 kts 83°
2026-05-07 19:59 39.87005 -5.60890 31736 ft 487 kts 83°
2026-05-07 19:59 39.87374 -5.56581 31540 ft 470 kts 83°
2026-05-07 19:59 39.87845 -5.52438 31301 ft 457 kts 79°
2026-05-07 19:59 39.88429 -5.48426 31013 ft 445 kts 77°
2026-05-07 20:00 39.89007 -5.44880 30749 ft 436 kts 76°
2026-05-07 20:00 39.89650 -5.41249 30461 ft 427 kts 75°
2026-05-07 20:00 39.90308 -5.37509 30124 ft 420 kts 77°
2026-05-07 20:00 39.90862 -5.33795 29782 ft 414 kts 78°
2026-05-07 20:01 39.91360 -5.30134 29386 ft 408 kts 78°
2026-05-07 20:01 39.91851 -5.26515 28978 ft 403 kts 78°
2026-05-07 20:01 39.92379 -5.22951 28576 ft 398 kts 77°
2026-05-07 20:01 39.92901 -5.19425 28182 ft 394 kts 77°
2026-05-07 20:02 39.93406 -5.15938 27797 ft 390 kts 77°
2026-05-07 20:02 39.93911 -5.12490 27416 ft 386 kts 77°
2026-05-07 20:02 39.94374 -5.09297 27066 ft 383 kts 77°
2026-05-07 20:02 39.94868 -5.05909 26702 ft 385 kts 77°
2026-05-07 20:03 39.95374 -5.02436 26408 ft 394 kts 77°
2026-05-07 20:03 39.95880 -4.98925 26149 ft 390 kts 78°
2026-05-07 20:03 39.96377 -4.95489 25860 ft 383 kts 77°
2026-05-07 20:03 39.96864 -4.92103 25547 ft 378 kts 77°
2026-05-07 20:04 39.97350 -4.88760 25213 ft 373 kts 77°
2026-05-07 20:04 39.97823 -4.85450 24891 ft 370 kts 77°
2026-05-07 20:04 39.98290 -4.82195 24576 ft 366 kts 77°
2026-05-07 20:04 39.98752 -4.78958 24254 ft 363 kts 77°
2026-05-07 20:05 39.99212 -4.75733 23948 ft 360 kts 77°
2026-05-07 20:05 39.99642 -4.72727 23653 ft 357 kts 77°
2026-05-07 20:05 40.00092 -4.69555 23325 ft 354 kts 77°
2026-05-07 20:05 40.00536 -4.66411 22968 ft 351 kts 77°
2026-05-07 20:06 40.00978 -4.63294 22618 ft 348 kts 77°
2026-05-07 20:06 40.01409 -4.60246 22282 ft 345 kts 77°
2026-05-07 20:06 40.01840 -4.57168 21963 ft 342 kts 78°
2026-05-07 20:06 40.02269 -4.54127 21633 ft 339 kts 77°
2026-05-07 20:07 40.02695 -4.51111 21312 ft 337 kts 77°
2026-05-07 20:07 40.03115 -4.48111 21002 ft 334 kts 78°
2026-05-07 20:07 40.03526 -4.45140 20691 ft 332 kts 78°
2026-05-07 20:07 40.03938 -4.42182 20392 ft 329 kts 78°
2026-05-07 20:08 40.04331 -4.39352 20108 ft 326 kts 78°
2026-05-07 20:08 40.04722 -4.36540 19818 ft 324 kts 78°
2026-05-07 20:08 40.05121 -4.33663 19545 ft 321 kts 78°
2026-05-07 20:08 40.05512 -4.30839 19274 ft 319 kts 79°
2026-05-07 20:09 40.05912 -4.27948 19032 ft 329 kts 79°
2026-05-07 20:09 40.06325 -4.24964 18741 ft 339 kts 79°
2026-05-07 20:09 40.06737 -4.21924 18501 ft 342 kts 79°
2026-05-07 20:10 40.07578 -4.15727 17775 ft 351 kts 79°
2026-05-07 20:10 40.08011 -4.12566 17390 ft 355 kts 80°
2026-05-07 20:10 40.08446 -4.09376 17012 ft 358 kts 80°
2026-05-07 20:10 40.08882 -4.06166 16635 ft 361 kts 80°
2026-05-07 20:11 40.09290 -4.03151 16280 ft 363 kts 80°
2026-05-07 20:11 40.09735 -3.99888 15906 ft 365 kts 80°
2026-05-07 20:11 40.10171 -3.96654 15541 ft 367 kts 80°
2026-05-07 20:11 40.10612 -3.93365 15160 ft 368 kts 80°
2026-05-07 20:12 40.11057 -3.90052 14727 ft 370 kts 81°
2026-05-07 20:12 40.11495 -3.86771 14295 ft 363 kts 81°
2026-05-07 20:12 40.11925 -3.83542 13863 ft 358 kts 81°
2026-05-07 20:12 40.12349 -3.80361 13390 ft 353 kts 81°
2026-05-07 20:13 40.12765 -3.77224 12912 ft 348 kts 81°
2026-05-07 20:13 40.13177 -3.74121 12459 ft 344 kts 81°
2026-05-07 20:13 40.13583 -3.71062 12007 ft 340 kts 81°
2026-05-07 20:13 40.13961 -3.68210 11593 ft 336 kts 81°
2026-05-07 20:14 40.14356 -3.65223 11188 ft 331 kts 81°
2026-05-07 20:14 40.14746 -3.62278 10783 ft 327 kts 81°
2026-05-07 20:14 40.15133 -3.59366 10378 ft 323 kts 81°
2026-05-07 20:14 40.15495 -3.56624 9956 ft 314 kts 81°
2026-05-07 20:15 40.15865 -3.53860 9456 ft 304 kts 81°
2026-05-07 20:15 40.16222 -3.51205 8929 ft 296 kts 81°
2026-05-07 20:15 40.16741 -3.48637 8372 ft 291 kts 64°
2026-05-07 20:15 40.17988 -3.46596 7776 ft 288 kts 40°
2026-05-07 20:16 40.19559 -3.45022 7278 ft 281 kts 37°
2026-05-07 20:16 40.21141 -3.43548 6787 ft 276 kts 35°
2026-05-07 20:16 40.22744 -3.42307 6688 ft 255 kts 25°
2026-05-07 20:16 40.24306 -3.41409 6631 ft 237 kts 22°
2026-05-07 20:17 40.25812 -3.40624 6402 ft 229 kts 21°
2026-05-07 20:17 40.27273 -3.39889 6170 ft 221 kts 21°
2026-05-07 20:17 40.28696 -3.39195 5932 ft 215 kts 21°
2026-05-07 20:17 40.30079 -3.38535 5694 ft 208 kts 20°
2026-05-07 20:18 40.31466 -3.38167 5408 ft 203 kts 351°
2026-05-07 20:18 40.32760 -3.38789 5185 ft 195 kts 329°
2026-05-07 20:18 40.33846 -3.39723 5054 ft 183 kts 322°
2026-05-07 20:18 40.34818 -3.40721 4958 ft 168 kts 319°
2026-05-07 20:19 40.35763 -3.41759 4808 ft 189 kts 318°
2026-05-07 20:19 40.36804 -3.42944 4744 ft 203 kts 319°
2026-05-07 20:19 40.37927 -3.44161 4604 ft 223 kts 321°
2026-05-07 20:19 40.39034 -3.45243 4902 ft 158 kts 325°
2026-05-07 20:20 40.39807 -3.45944 4772 ft 135 kts 325°
2026-05-07 20:20 40.40684 -3.46771 4149 ft 168 kts 323°
2026-05-07 20:20 40.41621 -3.47788 3715 ft 180 kts 320°
2026-05-07 20:20 40.42555 -3.48764 3399 ft 179 kts 323°
2026-05-07 20:21 40.43525 -3.49698 3052 ft 162 kts 326°
2026-05-07 20:21 40.44353 -3.50556 2659 ft 145 kts 322°
2026-05-07 20:21 40.45163 -3.51405 2472 ft 150 kts 322°
2026-05-07 20:21 40.46006 -3.52259 2321 ft 159 kts 325°
2026-05-07 20:22 40.46931 -3.53181 2103 ft 172 kts 322°
2026-05-07 20:22 40.47863 -3.54126 1973 ft 157 kts 323°
2026-05-07 20:22 40.48603 -3.54881 1965 ft 109 kts 322°
2026-05-07 20:22 40.49069 -3.55364 1978 ft 64 kts 319°
2026-05-07 20:23 40.49220 -3.55628 1985 ft 16 kts 293°
2026-05-07 20:23 40.49237 -3.55681 1986 ft 1 kts 293°
2026-05-07 20:23 40.49231 -3.55663 1982 ft 0 kts 293°
2026-05-07 20:23 40.49253 -3.55731 1983 ft 16 kts 293°
2026-05-07 20:24 40.49276 -3.55802 1985 ft 0 kts 293°
2026-05-07 20:25 40.49290 -3.55844 1985 ft 17 kts 291°
2026-05-07 20:25 40.49297 -3.56089 1980 ft 28 kts 257°
2026-05-07 20:26 40.49173 -3.56147 1974 ft 23 kts 176°
2026-05-07 20:26 40.48952 -3.56142 1967 ft 33 kts 178°
2026-05-07 20:26 40.48771 -3.56193 1962 ft 19 kts 253°
2026-05-07 20:26 40.48771 -3.56391 1959 ft 30 kts 269°
2026-05-07 20:27 40.48769 -3.56736 1955 ft 43 kts 270°
2026-05-07 20:27 40.48768 -3.57123 1954 ft 42 kts 270°
2026-05-07 20:27 40.48766 -3.57490 1958 ft 39 kts 270°
2026-05-07 20:27 40.48766 -3.57828 1961 ft 36 kts 269°
2026-05-07 20:28 40.48790 -3.58048 1959 ft 14 kts 330°
2026-05-07 20:28 40.48988 -3.58056 1943 ft 48 kts
2026-05-07 20:28 40.49367 -3.58060 1934 ft 54 kts 359°
2026-05-07 20:28 40.49659 -3.58063 1935 ft 26 kts 360°
2026-05-07 20:29 40.49739 -3.58152 1937 ft 13 kts 274°
2026-05-07 20:29 40.49739 -3.58380 1941 ft 34 kts 268°
2026-05-07 20:29 40.49736 -3.58679 1945 ft 32 kts 269°
2026-05-07 20:29 40.49749 -3.58892 1947 ft 11 kts 270°
2026-05-07 20:30 40.49747 -3.58981 1948 ft 3 kts 260°
2026-05-07 20:30 40.49745 -3.58986 1948 ft 3 kts 230°
2026-05-07 20:30 40.49728 -3.58996 1948 ft 4 kts 191°
2026-05-07 20:30 40.49702 -3.58999 1948 ft 0 kts 182°